When you browse on this site, cookies collect data to enhance your experience and personalize the content and advertising you see.
Visit our Privacy Policy to learn more. By continuing to use the site, you agree to this use of cookies and data.
  • In Hungary
  • List of Countries
  • For 7 days
  • Water Temperature
  • Weather Map
  • News
  • Weather Widgets
  • user-avatar
    Login

    Hourly Weather Yondo

    Today, 10 December, Tuesday

    Time Temperature Precipitation Wind Pressure Humidity
    00:00 +23°C° 0.1 mm 0 mps 753 mmHg 91%
    01:00 +23°C° 0.1 mm 0 mps 752 mmHg 92%
    02:00 +23°C° 0.5 mm 0 mps 752 mmHg 94%
    03:00 +22°C° 0.5 mm 0 mps 752 mmHg 95%
    04:00 +22°C° 0.5 mm 0 mps 752 mmHg 97%
    05:00 +22°C° 0.4 mm 0 mps 753 mmHg 97%
    06:00 +23°C° 0.4 mm 0 mps 753 mmHg 97%
    07:00 +23°C° 0.4 mm 0 mps 754 mmHg 96%
    08:00 +25°C° 0 mm 0 mps 754 mmHg 88%
    09:00 +27°C° 0 mm 0 mps 753 mmHg 79%
    10:00 +29°C° 0 mm 0 mps 753 mmHg 70%
    11:00 +31°C° 0 mm 0 mps 752 mmHg 65%
    12:00 +32°C° 0 mm 0 mps 751 mmHg 59%
    13:00 +33°C° 0 mm 0 mps 751 mmHg 54%
    14:00 +35°C° 0 mm 1 mps 750 mmHg 56%
    15:00 +34°C° 0 mm 1 mps 750 mmHg 59%
    16:00 +33°C° 0 mm 1 mps 749 mmHg 62%
    17:00 +31°C° 0.1 mm 1 mps 750 mmHg 70%
    18:00 +27°C° 0.1 mm 0 mps 751 mmHg 78%
    19:00 +25°C° 0.1 mm 0 mps 752 mmHg 87%
    20:00 +25°C° 0.2 mm 0 mps 752 mmHg 89%
    21:00 +24°C° 0.2 mm 0 mps 753 mmHg 91%
    22:00 +24°C° 0.2 mm 0 mps 753 mmHg 93%
    23:00 +24°C° 0.2 mm 0 mps 753 mmHg 94%

    Tomorrow, 11 December, Wednesday

    Time Temperature Precipitation Wind Pressure Humidity
    00:00 +23°C° 0.2 mm 0 mps 753 mmHg 95%
    01:00 +23°C° 0.2 mm 0 mps 752 mmHg 96%
    02:00 +23°C° 0.4 mm 0 mps 752 mmHg 96%
    03:00 +23°C° 0.4 mm 0 mps 752 mmHg 96%
    04:00 +23°C° 0.4 mm 0 mps 752 mmHg 96%
    05:00 +23°C° 0.2 mm 0 mps 753 mmHg 96%
    06:00 +23°C° 0.2 mm 0 mps 753 mmHg 95%
    07:00 +23°C° 0.2 mm 0 mps 754 mmHg 95%
    08:00 +25°C° 0.2 mm 0 mps 754 mmHg 87%
    09:00 +27°C° 0.2 mm 0 mps 754 mmHg 79%
    10:00 +29°C° 0.2 mm 0 mps 754 mmHg 71%
    11:00 +30°C° 0.1 mm 0 mps 753 mmHg 66%
    12:00 +31°C° 0.1 mm 0 mps 752 mmHg 61%
    13:00 +32°C° 0.1 mm 0 mps 751 mmHg 56%
    14:00 +31°C° 0 mm 0 mps 751 mmHg 59%
    15:00 +31°C° 0 mm 0 mps 751 mmHg 63%
    16:00 +30°C° 0 mm 0 mps 750 mmHg 66%
    17:00 +29°C° 0.2 mm 0 mps 751 mmHg 74%
    18:00 +27°C° 0.2 mm 0 mps 751 mmHg 81%
    19:00 +25°C° 0.2 mm 0 mps 752 mmHg 88%
    20:00 +24°C° 0.9 mm 0 mps 752 mmHg 91%
    21:00 +24°C° 0.9 mm 0 mps 753 mmHg 93%
    22:00 +23°C° 0.9 mm 0 mps 753 mmHg 95%
    23:00 +23°C° 0.5 mm 0 mps 753 mmHg 96%

    Day after tomorrow, 12 December, Thursday

    Time Temperature Precipitation Wind Pressure Humidity
    00:00 +23°C° 0.5 mm 0 mps 753 mmHg 96%
    01:00 +23°C° 0.5 mm 0 mps 753 mmHg 97%
    02:00 +22°C° 1.1 mm 0 mps 753 mmHg 97%
    03:00 +22°C° 1.1 mm 0 mps 752 mmHg 97%
    04:00 +22°C° 1.1 mm 0 mps 752 mmHg 97%
    05:00 +22°C° 0.6 mm 0 mps 753 mmHg 97%
    06:00 +22°C° 0.6 mm 0 mps 753 mmHg 97%
    07:00 +23°C° 0.6 mm 0 mps 753 mmHg 97%
    08:00 +24°C° 0.3 mm 0 mps 753 mmHg 90%
    09:00 +26°C° 0.3 mm 0 mps 753 mmHg 83%
    10:00 +28°C° 0.3 mm 0 mps 753 mmHg 76%
    11:00 +30°C° 0.1 mm 0 mps 752 mmHg 68%
    12:00 +31°C° 0.1 mm 0 mps 751 mmHg 61%
    13:00 +33°C° 0.1 mm 0 mps 751 mmHg 54%
    14:00 +32°C° 0 mm 0 mps 750 mmHg 58%
    15:00 +31°C° 0 mm 0 mps 750 mmHg 62%
    16:00 +30°C° 0 mm 0 mps 749 mmHg 67%
    17:00 +28°C° 0.3 mm 0 mps 750 mmHg 75%
    18:00 +26°C° 0.3 mm 0 mps 751 mmHg 83%
    19:00 +24°C° 0.3 mm 0 mps 751 mmHg 92%
    20:00 +23°C° 1.1 mm 0 mps 752 mmHg 93%
    21:00 +23°C° 1.1 mm 0 mps 752 mmHg 95%
    22:00 +22°C° 1.1 mm 0 mps 753 mmHg 97%
    23:00 +22°C° 0.9 mm 0 mps 753 mmHg 97%

    13 December, Friday

    Time Temperature Precipitation Wind Pressure Humidity
    00:00 +22°C° 0.9 mm 0 mps 753 mmHg 98%
    01:00 +22°C° 0.9 mm 0 mps 752 mmHg 98%
    02:00 +22°C° 0.8 mm 0 mps 752 mmHg 98%
    03:00 +22°C° 0.8 mm 0 mps 752 mmHg 98%
    04:00 +22°C° 0.8 mm 0 mps 752 mmHg 99%
    05:00 +22°C° 0.2 mm 0 mps 752 mmHg 98%
    06:00 +22°C° 0.2 mm 0 mps 753 mmHg 98%
    07:00 +22°C° 0.2 mm 0 mps 753 mmHg 98%
    08:00 +24°C° 0.1 mm 0 mps 753 mmHg 90%
    09:00 +26°C° 0.1 mm 0 mps 753 mmHg 82%
    10:00 +28°C° 0.1 mm 0 mps 753 mmHg 74%
    11:00 +29°C° 0.1 mm 0 mps 752 mmHg 68%
    12:00 +30°C° 0.1 mm 0 mps 751 mmHg 62%
    13:00 +32°C° 0.1 mm 0 mps 750 mmHg 56%
    14:00 +31°C° 0 mm 0 mps 750 mmHg 59%
    15:00 +33°C° 0 mm 1 mps 750 mmHg 61%
    16:00 +32°C° 0 mm 1 mps 749 mmHg 64%
    17:00 +28°C° 0.2 mm 0 mps 750 mmHg 72%
    18:00 +26°C° 0.2 mm 0 mps 751 mmHg 79%
    19:00 +24°C° 0.2 mm 0 mps 751 mmHg 87%
    20:00 +24°C° 1.2 mm 0 mps 752 mmHg 89%
    21:00 +23°C° 1.2 mm 0 mps 753 mmHg 91%
    22:00 +23°C° 1.2 mm 0 mps 753 mmHg 94%
    23:00 +23°C° 0.7 mm 0 mps 753 mmHg 94%

    14 December, Saturday

    Time Temperature Precipitation Wind Pressure Humidity
    00:00 +22°C° 0.7 mm 0 mps 753 mmHg 95%
    01:00 +22°C° 0.7 mm 0 mps 752 mmHg 96%
    02:00 +22°C° 1.1 mm 0 mps 752 mmHg 97%
    03:00 +22°C° 1.1 mm 0 mps 752 mmHg 97%
    04:00 +22°C° 1.1 mm 0 mps 752 mmHg 98%
    05:00 +22°C° 0.6 mm 0 mps 753 mmHg 98%
    06:00 +22°C° 0.6 mm 0 mps 753 mmHg 97%
    07:00 +22°C° 0.6 mm 0 mps 754 mmHg 97%
    08:00 +24°C° 0 mm 0 mps 754 mmHg 91%
    09:00 +25°C° 0 mm 0 mps 753 mmHg 84%
    10:00 +27°C° 0 mm 0 mps 753 mmHg 78%
    11:00 +28°C° 0 mm 0 mps 752 mmHg 71%
    12:00 +30°C° 0 mm 0 mps 751 mmHg 64%
    13:00 +31°C° 0 mm 0 mps 750 mmHg 57%
    14:00 +31°C° 0 mm 0 mps 750 mmHg 59%
    15:00 +31°C° 0 mm 0 mps 750 mmHg 62%
    16:00 +32°C° 0 mm 1 mps 749 mmHg 64%
    17:00 +28°C° 0.2 mm 0 mps 750 mmHg 72%
    18:00 +26°C° 0.2 mm 0 mps 751 mmHg 80%
    19:00 +25°C° 0.2 mm 0 mps 752 mmHg 88%
    20:00 +24°C° 1.3 mm 0 mps 752 mmHg 91%
    21:00 +23°C° 1.3 mm 0 mps 753 mmHg 93%
    22:00 +23°C° 1.3 mm 0 mps 754 mmHg 96%
    23:00 +23°C° 0.7 mm 0 mps 753 mmHg 96%

    15 December, Sunday

    Time Temperature Precipitation Wind Pressure Humidity
    00:00 +23°C° 0.7 mm 0 mps 753 mmHg 97%
    01:00 +22°C° 0.7 mm 0 mps 753 mmHg 98%
    02:00 +22°C° 1 mm 0 mps 753 mmHg 98%
    03:00 +22°C° 1 mm 0 mps 752 mmHg 98%
    04:00 +22°C° 1 mm 0 mps 752 mmHg 99%
    05:00 +22°C° 0.4 mm 0 mps 753 mmHg 98%
    06:00 +22°C° 0.4 mm 0 mps 753 mmHg 98%
    07:00 +23°C° 0.4 mm 0 mps 754 mmHg 98%
    08:00 +24°C° 0.1 mm 0 mps 754 mmHg 93%
    09:00 +25°C° 0.1 mm 0 mps 754 mmHg 88%
    10:00 +27°C° 0.1 mm 0 mps 754 mmHg 83%
    11:00 +28°C° 0.1 mm 0 mps 753 mmHg 76%
    12:00 +30°C° 0.1 mm 0 mps 752 mmHg 68%
    13:00 +31°C° 0.1 mm 0 mps 751 mmHg 61%
    14:00 +31°C° 0 mm 0 mps 751 mmHg 62%
    15:00 +30°C° 0 mm 0 mps 750 mmHg 64%
    16:00 +32°C° 0 mm 1 mps 750 mmHg 66%
    17:00 +28°C° 0.1 mm 0 mps 751 mmHg 73%
    18:00 +27°C° 0.1 mm 0 mps 751 mmHg 80%
    19:00 +25°C° 0.1 mm 0 mps 752 mmHg 87%
    20:00 +24°C° 1.4 mm 0 mps 753 mmHg 90%
    21:00 +24°C° 1.4 mm 0 mps 753 mmHg 94%
    22:00 +23°C° 1.4 mm 0 mps 754 mmHg 97%
    23:00 +23°C° 0.3 mm 0 mps 754 mmHg 97%
    Show more